Time,TemperatureF,DewpointF,PressureIn,WindDirection,WindDirectionDegrees,WindSpeedMPH,WindSpeedGustMPH,Humidity,HourlyPrecipIn,Conditions,Clouds,dailyrainin,SoftwareType,DateUTC
2013-09-13 00:00:00,51.4,44.1,29.82,NNE,29,1.0,4.0,76,0.00,,,0.00,Wunderground v.1.15,2013-09-13 08:00:00,
2013-09-13 00:05:00,51.3,44.0,29.82,NNE,29,1.0,5.0,76,0.00,,,0.00,Wunderground v.1.15,2013-09-13 08:05:00,
2013-09-13 00:10:00,51.2,44.2,29.81,NNE,13,2.0,4.0,77,0.00,,,0.00,Wunderground v.1.15,2013-09-13 08:10:00,
2013-09-13 00:16:00,51.1,44.1,29.81,NNW,329,2.0,4.0,77,0.00,,,0.00,Wunderground v.1.15,2013-09-13 08:16:00,
2013-09-13 00:22:00,51.0,44.0,29.82,NE,48,3.0,7.0,77,0.00,,,0.00,Wunderground v.1.15,2013-09-13 08:22:00,
2013-09-13 00:28:00,51.1,44.1,29.82,NE,43,3.0,7.0,77,0.00,,,0.00,Wunderground v.1.15,2013-09-13 08:28:00,
2013-09-13 00:34:00,51.1,44.1,29.82,NE,51,3.0,5.0,77,0.00,,,0.00,Wunderground v.1.15,2013-09-13 08:34:00,
2013-09-13 00:40:00,50.9,44.3,29.81,NNE,29,3.0,4.0,78,0.00,,,0.00,Wunderground v.1.15,2013-09-13 08:40:00,
2013-09-13 00:46:00,50.8,44.5,29.82,NNE,27,2.0,6.0,79,0.00,,,0.00,Wunderground v.1.15,2013-09-13 08:46:00,
2013-09-13 00:52:00,50.6,44.3,29.81,NNE,14,1.0,4.0,79,0.00,,,0.00,Wunderground v.1.15,2013-09-13 08:52:00,
2013-09-13 00:58:00,50.6,44.3,29.81,NNE,15,0.0,4.0,79,0.00,,,0.00,Wunderground v.1.15,2013-09-13 08:58:00,
2013-09-13 01:04:00,50.5,44.6,29.81,NW,321,0.0,7.0,80,0.00,,,0.00,Wunderground v.1.15,2013-09-13 09:04:00,
2013-09-13 01:10:00,50.3,44.7,29.81,NNW,329,0.0,7.0,81,0.00,,,0.00,Wunderground v.1.15,2013-09-13 09:10:00,
2013-09-13 01:16:00,50.3,44.4,29.80,NNW,327,0.0,7.0,80,0.00,,,0.00,Wunderground v.1.15,2013-09-13 09:16:00,
2013-09-13 01:22:00,50.3,44.4,29.81,NNW,340,0.0,7.0,80,0.00,,,0.00,Wunderground v.1.15,2013-09-13 09:22:00,
2013-09-13 01:28:00,50.3,44.4,29.81,NNW,330,0.0,7.0,80,0.00,,,0.00,Wunderground v.1.15,2013-09-13 09:28:00,
2013-09-13 01:34:00,50.3,44.4,29.81,SW,224,0.0,7.0,80,0.00,,,0.00,Wunderground v.1.15,2013-09-13 09:34:00,
2013-09-13 01:40:00,50.4,44.5,29.81,SSW,201,1.0,7.0,80,0.00,,,0.00,Wunderground v.1.15,2013-09-13 09:40:00,
2013-09-13 01:46:00,50.6,44.3,29.81,West,261,3.0,7.0,79,0.00,,,0.00,Wunderground v.1.15,2013-09-13 09:46:00,
2013-09-13 01:51:00,50.8,44.5,29.81,SW,218,2.0,7.0,79,0.00,,,0.00,Wunderground v.1.15,2013-09-13 09:51:00,
2013-09-13 01:57:00,50.8,44.5,29.81,WNW,291,1.0,7.0,79,0.00,,,0.00,Wunderground v.1.15,2013-09-13 09:57:00,
2013-09-13 02:02:00,50.6,44.7,29.81,North,359,0.0,5.0,80,0.00,,,0.00,Wunderground v.1.15,2013-09-13 10:02:00,
2013-09-13 02:08:00,50.4,44.5,29.81,NE,40,0.0,5.0,80,0.00,,,0.00,Wunderground v.1.15,2013-09-13 10:08:00,
2013-09-13 02:14:00,50.2,43.9,29.81,East,91,2.0,6.0,79,0.00,,,0.00,Wunderground v.1.15,2013-09-13 10:14:00,
2013-09-13 02:20:00,49.8,44.2,29.81,ENE,72,5.0,8.0,81,0.00,,,0.00,Wunderground v.1.15,2013-09-13 10:20:00,
2013-09-13 02:26:00,49.6,44.3,29.80,NNE,25,4.0,8.0,82,0.00,,,0.00,Wunderground v.1.15,2013-09-13 10:26:00,
2013-09-13 02:32:00,49.5,43.9,29.80,North,354,3.0,5.0,81,0.00,,,0.00,Wunderground v.1.15,2013-09-13 10:32:00,
2013-09-13 02:38:00,49.6,43.7,29.80,NE,54,4.0,6.0,80,0.00,,,0.00,Wunderground v.1.15,2013-09-13 10:38:00,
2013-09-13 02:44:00,49.9,43.3,29.80,North,4,5.0,8.0,78,0.00,,,0.00,Wunderground v.1.15,2013-09-13 10:44:00,
2013-09-13 02:50:00,50.4,43.5,29.80,NNE,27,4.0,9.0,77,0.00,,,0.00,Wunderground v.1.15,2013-09-13 10:50:00,
2013-09-13 02:56:00,50.6,43.7,29.80,ENE,70,5.0,9.0,77,0.00,,,0.00,Wunderground v.1.15,2013-09-13 10:56:00,
2013-09-13 03:02:00,50.7,43.4,29.80,NE,44,5.0,15.0,76,0.00,,,0.00,Wunderground v.1.15,2013-09-13 11:02:00,
2013-09-13 03:08:00,50.7,43.4,29.80,NW,318,5.0,15.0,76,0.00,,,0.00,Wunderground v.1.15,2013-09-13 11:08:00,
2013-09-13 03:14:00,51.1,43.1,29.79,North,349,6.0,15.0,74,0.00,,,0.00,Wunderground v.1.15,2013-09-13 11:14:00,
2013-09-13 03:20:00,51.2,43.5,29.78,NNE,33,7.0,8.0,75,0.00,,,0.00,Wunderground v.1.15,2013-09-13 11:20:00,
2013-09-13 03:26:00,51.1,43.4,29.78,East,99,7.0,17.0,75,0.00,,,0.00,Wunderground v.1.15,2013-09-13 11:26:00,
2013-09-13 03:31:00,50.9,43.6,29.79,NE,35,6.0,15.0,76,0.00,,,0.00,Wunderground v.1.15,2013-09-13 11:31:00,
2013-09-13 03:37:00,50.8,43.5,29.79,NNW,347,5.0,15.0,76,0.00,,,0.00,Wunderground v.1.15,2013-09-13 11:37:00,
2013-09-13 03:43:00,50.8,43.8,29.79,NNE,14,6.0,15.0,77,0.00,,,0.00,Wunderground v.1.15,2013-09-13 11:43:00,
2013-09-13 03:49:00,50.5,43.9,29.78,NNE,27,6.0,6.0,78,0.00,,,0.00,Wunderground v.1.15,2013-09-13 11:49:00,
2013-09-13 03:54:00,50.3,44.0,29.78,ENE,58,6.0,15.0,79,0.00,,,0.00,Wunderground v.1.15,2013-09-13 11:54:00,
2013-09-13 04:00:00,50.0,44.1,29.78,WNW,300,7.0,7.0,80,0.00,,,0.00,Wunderground v.1.15,2013-09-13 12:00:00,
2013-09-13 04:05:00,50.1,43.8,29.78,NE,41,7.0,17.0,79,0.00,,,0.00,Wunderground v.1.15,2013-09-13 12:05:00,
2013-09-13 04:11:00,50.2,43.6,29.77,North,359,6.0,17.0,78,0.00,,,0.00,Wunderground v.1.15,2013-09-13 12:11:00,
2013-09-13 04:16:00,50.3,43.7,29.77,NE,50,4.0,17.0,78,0.00,,,0.00,Wunderground v.1.15,2013-09-13 12:16:00,
2013-09-13 04:22:00,50.8,43.5,29.77,NW,319,5.0,17.0,76,0.00,,,0.00,Wunderground v.1.15,2013-09-13 12:22:00,
2013-09-13 04:28:00,50.9,43.6,29.77,North,8,5.0,17.0,76,0.00,,,0.00,Wunderground v.1.15,2013-09-13 12:28:00,
2013-09-13 04:34:00,51.2,43.2,29.76,NNE,27,6.0,17.0,74,0.00,,,0.00,Wunderground v.1.15,2013-09-13 12:34:00,
2013-09-13 04:40:00,51.4,43.4,29.77,NW,310,7.0,17.0,74,0.00,,,0.00,Wunderground v.1.15,2013-09-13 12:40:00,
2013-09-13 04:46:00,51.5,43.1,29.76,North,4,6.0,17.0,73,0.00,,,0.00,Wunderground v.1.15,2013-09-13 12:46:00,
2013-09-13 04:52:00,51.7,43.3,29.76,ENE,73,8.0,17.0,73,0.00,,,0.00,Wunderground v.1.15,2013-09-13 12:52:00,
2013-09-13 04:58:00,51.7,43.3,29.77,NNE,18,7.0,17.0,73,0.00,,,0.00,Wunderground v.1.15,2013-09-13 12:58:00,
2013-09-13 05:03:00,51.6,43.2,29.77,NNW,336,7.0,20.0,73,0.00,,,0.00,Wunderground v.1.15,2013-09-13 13:03:00,
2013-09-13 05:09:00,51.6,43.2,29.77,NNE,18,6.0,20.0,73,0.00,,,0.00,Wunderground v.1.15,2013-09-13 13:09:00,
2013-09-13 05:15:00,51.7,43.7,29.77,NE,42,6.0,20.0,74,0.00,,,0.00,Wunderground v.1.15,2013-09-13 13:15:00,
2013-09-13 05:21:00,51.6,43.6,29.76,NE,35,6.0,20.0,74,0.00,,,0.00,Wunderground v.1.15,2013-09-13 13:21:00,
2013-09-13 05:26:00,51.7,43.3,29.76,NE,43,6.0,20.0,73,0.00,,,0.00,Wunderground v.1.15,2013-09-13 13:26:00,
2013-09-13 05:32:00,51.9,43.5,29.77,North,10,6.0,20.0,73,0.00,,,0.00,Wunderground v.1.15,2013-09-13 13:32:00,
2013-09-13 05:38:00,51.9,43.5,29.76,NNE,21,6.0,20.0,73,0.00,,,0.00,Wunderground v.1.15,2013-09-13 13:38:00,
2013-09-13 05:44:00,51.9,43.5,29.77,NE,45,5.0,20.0,73,0.00,,,0.00,Wunderground v.1.15,2013-09-13 13:44:00,
2013-09-13 05:50:00,52.0,43.6,29.76,NE,43,6.0,20.0,73,0.00,,,0.00,Wunderground v.1.15,2013-09-13 13:50:00,
2013-09-13 05:56:00,51.9,43.9,29.76,NNW,337,5.0,20.0,74,0.00,,,0.00,Wunderground v.1.15,2013-09-13 13:56:00,
2013-09-13 06:01:00,51.9,43.9,29.77,NE,37,5.0,16.0,74,0.00,,,0.00,Wunderground v.1.15,2013-09-13 14:01:00,
2013-09-13 06:07:00,52.0,44.0,29.77,NNE,21,5.0,16.0,74,0.00,,,0.00,Wunderground v.1.15,2013-09-13 14:07:00,
2013-09-13 06:13:00,52.0,44.0,29.76,NW,322,5.0,16.0,74,0.00,,,0.00,Wunderground v.1.15,2013-09-13 14:13:00,
2013-09-13 06:19:00,52.1,43.7,29.77,NNE,14,5.0,5.0,73,0.00,,,0.00,Wunderground v.1.15,2013-09-13 14:19:00,
2013-09-13 06:25:00,52.3,43.9,29.77,NNW,337,5.0,16.0,73,0.00,,,0.00,Wunderground v.1.15,2013-09-13 14:25:00,
2013-09-13 06:30:00,52.3,43.9,29.77,North,11,5.0,8.0,73,0.00,,,0.00,Wunderground v.1.15,2013-09-13 14:30:00,
2013-09-13 06:35:00,52.5,44.1,29.77,NNE,29,6.0,16.0,73,0.00,,,0.00,Wunderground v.1.15,2013-09-13 14:35:00,
2013-09-13 06:41:00,52.5,44.1,29.77,NW,318,6.0,16.0,73,0.00,,,0.00,Wunderground v.1.15,2013-09-13 14:41:00,
2013-09-13 06:46:00,52.6,44.2,29.77,NE,43,5.0,16.0,73,0.00,,,0.00,Wunderground v.1.15,2013-09-13 14:46:00,
2013-09-13 06:51:00,52.6,44.2,29.77,NNW,341,4.0,16.0,73,0.00,,,0.00,Wunderground v.1.15,2013-09-13 14:51:00,
2013-09-13 06:56:00,52.6,44.2,29.77,NNE,30,4.0,16.0,73,0.00,,,0.00,Wunderground v.1.15,2013-09-13 14:56:00,
2013-09-13 07:02:00,52.6,44.2,29.77,NW,307,4.0,13.0,73,0.00,,,0.00,Wunderground v.1.15,2013-09-13 15:02:00,
2013-09-13 07:08:00,52.6,44.2,29.77,NNW,333,4.0,13.0,73,0.00,,,0.00,Wunderground v.1.15,2013-09-13 15:08:00,
2013-09-13 07:13:00,52.7,44.3,29.77,NNW,345,4.0,13.0,73,0.00,,,0.00,Wunderground v.1.15,2013-09-13 15:13:00,
2013-09-13 07:18:00,52.7,44.3,29.77,WNW,302,4.0,13.0,73,0.00,,,0.00,Wunderground v.1.15,2013-09-13 15:18:00,
2013-09-13 07:23:00,52.7,44.3,29.77,NNW,347,4.0,13.0,73,0.00,,,0.00,Wunderground v.1.15,2013-09-13 15:23:00,
2013-09-13 07:29:00,52.7,44.3,29.77,ENE,59,5.0,13.0,73,0.00,,,0.00,Wunderground v.1.15,2013-09-13 15:29:00,
2013-09-13 07:35:00,52.8,44.7,29.77,NNE,26,5.0,13.0,74,0.00,,,0.00,Wunderground v.1.15,2013-09-13 15:35:00,
2013-09-13 07:40:00,52.8,44.4,29.77,North,4,4.0,13.0,73,0.00,,,0.00,Wunderground v.1.15,2013-09-13 15:40:00,
2013-09-13 07:46:00,53.0,44.6,29.77,NNE,33,4.0,13.0,73,0.00,,,0.00,Wunderground v.1.15,2013-09-13 15:46:00,
2013-09-13 07:52:00,53.2,44.8,29.77,NE,35,5.0,13.0,73,0.00,,,0.00,Wunderground v.1.15,2013-09-13 15:52:00,
2013-09-13 07:57:00,53.2,44.8,29.77,NW,325,5.0,13.0,73,0.00,,,0.00,Wunderground v.1.15,2013-09-13 15:57:00,
2013-09-13 08:02:00,53.2,45.1,29.78,NNE,31,4.0,14.0,74,0.00,,,0.00,Wunderground v.1.15,2013-09-13 16:02:00,
2013-09-13 08:08:00,53.1,45.0,29.78,NE,49,4.0,14.0,74,0.00,,,0.00,Wunderground v.1.15,2013-09-13 16:08:00,
2013-09-13 08:13:00,53.1,45.0,29.78,NNE,28,4.0,14.0,74,0.00,,,0.00,Wunderground v.1.15,2013-09-13 16:13:00,
2013-09-13 08:19:00,52.9,45.2,29.78,North,4,4.0,4.0,75,0.00,,,0.00,Wunderground v.1.15,2013-09-13 16:19:00,
2013-09-13 08:24:00,52.8,45.4,29.78,NNW,337,5.0,14.0,76,0.00,,,0.00,Wunderground v.1.15,2013-09-13 16:24:00,
2013-09-13 08:29:00,52.8,45.1,29.78,NNE,16,4.0,14.0,75,0.00,,,0.00,Wunderground v.1.15,2013-09-13 16:29:00,
2013-09-13 08:35:00,52.8,45.1,29.78,NE,37,3.0,14.0,75,0.00,,,0.00,Wunderground v.1.15,2013-09-13 16:35:00,
2013-09-13 08:41:00,52.8,45.4,29.78,NE,45,3.0,14.0,76,0.00,,,0.00,Wunderground v.1.15,2013-09-13 16:41:00,
2013-09-13 08:47:00,52.9,45.2,29.79,NE,41,2.0,14.0,75,0.00,,,0.00,Wunderground v.1.15,2013-09-13 16:47:00,
2013-09-13 08:53:00,53.0,45.3,29.79,NE,37,2.0,14.0,75,0.00,,,0.00,Wunderground v.1.15,2013-09-13 16:53:00,
2013-09-13 08:59:00,53.1,45.4,29.79,NE,35,2.0,9.0,75,0.00,,,0.00,Wunderground v.1.15,2013-09-13 16:59:00,
2013-09-13 09:05:00,53.1,45.7,29.79,NE,44,2.0,9.0,76,0.00,,,0.00,Wunderground v.1.15,2013-09-13 17:05:00,
2013-09-13 09:11:00,52.9,45.9,29.79,NE,35,1.0,9.0,77,0.00,,,0.00,Wunderground v.1.15,2013-09-13 17:11:00,
2013-09-13 09:17:00,52.7,45.7,29.79,NNE,28,2.0,9.0,77,0.00,,,0.00,Wunderground v.1.15,2013-09-13 17:17:00,
2013-09-13 09:23:00,52.5,45.8,29.79,NE,36,1.0,9.0,78,0.00,,,0.00,Wunderground v.1.15,2013-09-13 17:23:00,
2013-09-13 09:29:00,52.4,45.7,29.80,NNW,347,1.0,1.0,78,0.00,,,0.00,Wunderground v.1.15,2013-09-13 17:29:00,
2013-09-13 09:34:00,52.3,45.6,29.80,NNE,18,1.0,9.0,78,0.00,,,0.00,Wunderground v.1.15,2013-09-13 17:34:00,
2013-09-13 09:40:00,52.2,45.9,29.80,NNW,346,1.0,9.0,79,0.00,,,0.00,Wunderground v.1.15,2013-09-13 17:40:00,
2013-09-13 09:45:00,52.2,46.2,29.80,NNE,15,0.0,9.0,80,0.00,,,0.00,Wunderground v.1.15,2013-09-13 17:45:00,
2013-09-13 09:50:00,52.3,47.0,29.80,NE,38,0.0,9.0,82,0.00,,,0.00,Wunderground v.1.15,2013-09-13 17:50:00,
2013-09-13 09:56:00,51.9,46.6,29.80,NNW,328,0.0,9.0,82,0.00,,,0.00,Wunderground v.1.15,2013-09-13 17:56:00,
2013-09-13 10:01:00,51.8,46.5,29.80,North,4,1.0,2.0,82,0.00,,,0.00,Wunderground v.1.15,2013-09-13 18:01:00,
2013-09-13 10:07:00,52.2,46.9,29.80,NNW,337,1.0,3.0,82,0.00,,,0.00,Wunderground v.1.15,2013-09-13 18:07:00,
2013-09-13 10:13:00,52.8,46.8,29.80,North,4,2.0,4.0,80,0.00,,,0.00,Wunderground v.1.15,2013-09-13 18:13:00,
2013-09-13 10:19:00,53.5,47.5,29.81,North,354,2.0,2.0,80,0.00,,,0.00,Wunderground v.1.15,2013-09-13 18:19:00,
2013-09-13 10:25:00,54.3,47.9,29.80,NNW,332,2.0,3.0,79,0.00,,,0.00,Wunderground v.1.15,2013-09-13 18:25:00,
2013-09-13 10:30:00,54.2,47.5,29.81,NNE,23,1.0,2.0,78,0.00,,,0.00,Wunderground v.1.15,2013-09-13 18:30:00,
2013-09-13 10:36:00,54.3,47.9,29.81,NNE,12,1.0,2.0,79,0.00,,,0.00,Wunderground v.1.15,2013-09-13 18:36:00,
2013-09-13 10:41:00,54.1,47.4,29.81,NNW,343,1.0,4.0,78,0.00,,,0.00,Wunderground v.1.15,2013-09-13 18:41:00,
2013-09-13 10:47:00,53.9,47.5,29.81,NNE,29,1.0,4.0,79,0.00,,,0.00,Wunderground v.1.15,2013-09-13 18:47:00,
2013-09-13 10:53:00,53.9,47.9,29.81,NNE,18,1.0,4.0,80,0.00,,,0.00,Wunderground v.1.15,2013-09-13 18:53:00,
2013-09-13 11:00:00,53.7,48.0,29.82,NE,35,1.0,4.0,81,0.00,,,0.00,Wunderground v.1.15,2013-09-13 19:00:00,
2013-09-13 11:05:00,53.6,47.9,29.82,NNW,345,1.0,5.0,81,0.00,,,0.00,Wunderground v.1.15,2013-09-13 19:05:00,
2013-09-13 11:10:00,53.5,47.8,29.82,North,4,2.0,4.0,81,0.00,,,0.00,Wunderground v.1.15,2013-09-13 19:10:00,
2013-09-13 11:15:00,53.4,48.0,29.82,NNW,332,1.0,4.0,82,0.00,,,0.00,Wunderground v.1.15,2013-09-13 19:15:00,
2013-09-13 11:21:00,53.2,48.2,29.82,North,359,1.0,4.0,83,0.00,,,0.00,Wunderground v.1.15,2013-09-13 19:21:00,
2013-09-13 11:27:00,53.0,48.0,29.83,NNE,31,2.0,5.0,83,0.00,,,0.00,Wunderground v.1.15,2013-09-13 19:27:00,
2013-09-13 11:32:00,53.0,48.9,29.83,ENE,58,2.0,4.0,86,0.00,,,0.00,Wunderground v.1.15,2013-09-13 19:32:00,
2013-09-13 11:38:00,52.3,48.2,29.83,NNE,18,3.0,4.0,86,0.00,,,0.00,Wunderground v.1.15,2013-09-13 19:38:00,
2013-09-13 11:44:00,51.9,48.2,29.83,NNE,29,2.0,4.0,87,0.00,,,0.00,Wunderground v.1.15,2013-09-13 19:44:00,
2013-09-13 11:49:00,52.1,47.7,29.83,NE,34,3.0,3.0,85,0.00,,,0.00,Wunderground v.1.15,2013-09-13 19:49:00,
2013-09-13 11:55:00,51.7,47.6,29.83,NE,54,5.0,8.0,86,0.00,,,0.00,Wunderground v.1.15,2013-09-13 19:55:00,
2013-09-13 12:01:00,51.1,47.1,29.84,NE,54,5.0,11.0,86,0.00,,,0.00,Wunderground v.1.15,2013-09-13 20:01:00,
2013-09-13 12:07:00,51.0,47.9,29.84,NE,55,5.0,11.0,89,0.00,,,0.00,Wunderground v.1.15,2013-09-13 20:07:00,
2013-09-13 12:13:00,51.9,48.5,29.84,NE,39,5.0,11.0,88,0.00,,,0.00,Wunderground v.1.15,2013-09-13 20:13:00,
2013-09-13 12:19:00,52.8,48.7,29.83,ENE,59,4.0,11.0,86,0.00,,,0.00,Wunderground v.1.15,2013-09-13 20:19:00,
2013-09-13 12:25:00,53.6,48.9,29.83,ENE,66,4.0,11.0,84,0.00,,,0.00,Wunderground v.1.15,2013-09-13 20:25:00,
2013-09-13 12:30:00,54.2,48.8,29.83,NNE,31,3.0,4.0,82,0.00,,,0.00,Wunderground v.1.15,2013-09-13 20:30:00,
2013-09-13 12:36:00,55.1,48.7,29.83,NE,53,3.0,11.0,79,0.00,,,0.00,Wunderground v.1.15,2013-09-13 20:36:00,
2013-09-13 12:42:00,55.6,49.2,29.83,ENE,76,5.0,11.0,79,0.00,,,0.00,Wunderground v.1.15,2013-09-13 20:42:00,
2013-09-13 12:48:00,55.0,48.6,29.84,ENE,71,6.0,11.0,79,0.00,,,0.00,Wunderground v.1.15,2013-09-13 20:48:00,
2013-09-13 12:54:00,54.4,48.0,29.84,East,89,6.0,11.0,79,0.00,,,0.00,Wunderground v.1.15,2013-09-13 20:54:00,
2013-09-13 12:59:00,55.2,48.8,29.84,ENE,63,6.0,6.0,79,0.00,,,0.00,Wunderground v.1.15,2013-09-13 20:59:00,
2013-09-13 13:05:00,56.0,48.2,29.84,ENE,77,6.0,11.0,75,0.00,,,0.00,Wunderground v.1.15,2013-09-13 21:05:00,
2013-09-13 13:10:00,56.0,48.2,29.84,ENE,76,7.0,11.0,75,0.00,,,0.00,Wunderground v.1.15,2013-09-13 21:10:00,
2013-09-13 13:15:00,55.9,47.4,29.84,ENE,75,8.0,11.0,73,0.00,,,0.00,Wunderground v.1.15,2013-09-13 21:15:00,
2013-09-13 13:21:00,55.9,47.4,29.84,ENE,77,8.0,11.0,73,0.00,,,0.00,Wunderground v.1.15,2013-09-13 21:21:00,
2013-09-13 13:27:00,56.5,47.2,29.84,NE,53,8.0,11.0,71,0.00,,,0.00,Wunderground v.1.15,2013-09-13 21:27:00,
2013-09-13 13:33:00,56.4,47.1,29.84,ENE,62,7.0,11.0,71,0.00,,,0.00,Wunderground v.1.15,2013-09-13 21:33:00,
2013-09-13 13:39:00,55.8,46.5,29.84,ENE,64,7.0,7.0,71,0.00,,,0.00,Wunderground v.1.15,2013-09-13 21:39:00,
2013-09-13 13:45:00,55.5,46.6,29.84,East,82,7.0,11.0,72,0.00,,,0.00,Wunderground v.1.15,2013-09-13 21:45:00,
2013-09-13 13:50:00,55.5,46.2,29.84,East,92,6.0,11.0,71,0.00,,,0.00,Wunderground v.1.15,2013-09-13 21:50:00,
2013-09-13 13:56:00,56.0,46.4,29.85,NE,56,6.0,11.0,70,0.00,,,0.00,Wunderground v.1.15,2013-09-13 21:56:00,
2013-09-13 14:02:00,56.9,46.8,29.84,East,87,6.0,12.0,69,0.00,,,0.00,Wunderground v.1.15,2013-09-13 22:02:00,
2013-09-13 14:08:00,58.0,47.5,29.84,ENE,78,5.0,12.0,68,0.00,,,0.00,Wunderground v.1.15,2013-09-13 22:08:00,
2013-09-13 14:14:00,58.3,46.6,29.84,NE,53,4.0,12.0,65,0.00,,,0.00,Wunderground v.1.15,2013-09-13 22:14:00,
2013-09-13 14:20:00,57.6,45.9,29.84,ENE,77,5.0,7.0,65,0.00,,,0.00,Wunderground v.1.15,2013-09-13 22:20:00,
2013-09-13 14:26:00,57.3,45.6,29.84,ENE,68,5.0,12.0,65,0.00,,,0.00,Wunderground v.1.15,2013-09-13 22:26:00,
2013-09-13 14:32:00,56.8,46.0,29.85,ENE,72,4.0,12.0,67,0.00,,,0.00,Wunderground v.1.15,2013-09-13 22:32:00,
2013-09-13 14:38:00,56.4,46.0,29.85,NE,56,3.0,12.0,68,0.00,,,0.00,Wunderground v.1.15,2013-09-13 22:38:00,
2013-09-13 14:44:00,56.2,45.8,29.85,ENE,65,3.0,12.0,68,0.00,,,0.00,Wunderground v.1.15,2013-09-13 22:44:00,
2013-09-13 14:50:00,56.1,46.8,29.85,ESE,110,2.0,12.0,71,0.00,,,0.00,Wunderground v.1.15,2013-09-13 22:50:00,
2013-09-13 14:56:00,56.1,47.2,29.85,NE,52,0.0,12.0,72,0.00,,,0.00,Wunderground v.1.15,2013-09-13 22:56:00,
2013-09-13 15:02:00,55.8,46.2,29.85,ENE,68,0.0,5.0,70,0.00,,,0.00,Wunderground v.1.15,2013-09-13 23:02:00,
2013-09-13 15:08:00,55.5,47.0,29.85,ENE,68,0.0,5.0,73,0.00,,,0.00,Wunderground v.1.15,2013-09-13 23:08:00,
2013-09-13 15:14:00,55.3,46.4,29.85,ENE,68,0.0,5.0,72,0.00,,,0.00,Wunderground v.1.15,2013-09-13 23:14:00,
2013-09-13 15:20:00,55.2,46.7,29.85,ENE,70,0.0,5.0,73,0.00,,,0.00,Wunderground v.1.15,2013-09-13 23:20:00,
2013-09-13 15:26:00,55.1,46.6,29.85,ENE,66,0.0,5.0,73,0.00,,,0.00,Wunderground v.1.15,2013-09-13 23:26:00,
2013-09-13 15:31:00,55.0,46.5,29.85,ENE,65,1.0,5.0,73,0.00,,,0.00,Wunderground v.1.15,2013-09-13 23:31:00,
2013-09-13 15:37:00,55.2,46.0,29.85,ENE,60,0.0,5.0,71,0.00,,,0.00,Wunderground v.1.15,2013-09-13 23:37:00,
2013-09-13 15:43:00,55.4,46.5,29.84,ENE,70,0.0,5.0,72,0.00,,,0.00,Wunderground v.1.15,2013-09-13 23:43:00,
2013-09-13 15:49:00,55.5,46.6,29.84,NE,44,0.0,5.0,72,0.00,,,0.00,Wunderground v.1.15,2013-09-13 23:49:00,
2013-09-13 15:55:00,55.9,47.4,29.84,NE,44,0.0,5.0,73,0.00,,,0.00,Wunderground v.1.15,2013-09-13 23:55:00,
2013-09-13 16:01:00,56.1,46.4,29.84,NNW,341,0.0,0.0,70,0.00,,,0.00,Wunderground v.1.15,2013-09-14 00:01:00,
2013-09-13 16:07:00,56.1,47.2,29.85,East,84,0.0,1.0,72,0.00,,,0.00,Wunderground v.1.15,2013-09-14 00:07:00,
2013-09-13 16:13:00,55.9,47.4,29.85,East,91,0.0,0.0,73,0.00,,,0.00,Wunderground v.1.15,2013-09-14 00:13:00,
2013-09-13 16:19:00,55.5,47.7,29.85,East,86,0.0,0.0,75,0.00,,,0.00,Wunderground v.1.15,2013-09-14 00:19:00,
2013-09-13 16:25:00,55.1,47.3,29.85,ENE,64,1.0,2.0,75,0.00,,,0.00,Wunderground v.1.15,2013-09-14 00:25:00,
2013-09-13 16:31:00,54.6,47.2,29.85,ENE,71,1.0,2.0,76,0.00,,,0.00,Wunderground v.1.15,2013-09-14 00:31:00,
2013-09-13 16:36:00,54.2,47.5,29.85,NE,48,1.0,2.0,78,0.00,,,0.00,Wunderground v.1.15,2013-09-14 00:36:00,
2013-09-13 16:41:00,54.0,47.3,29.85,ENE,77,2.0,2.0,78,0.00,,,0.00,Wunderground v.1.15,2013-09-14 00:41:00,
2013-09-13 16:47:00,53.7,47.3,29.85,ENE,73,2.0,3.0,79,0.00,,,0.00,Wunderground v.1.15,2013-09-14 00:47:00,
2013-09-13 16:52:00,53.7,47.3,29.85,ENE,68,1.0,5.0,79,0.00,,,0.00,Wunderground v.1.15,2013-09-14 00:52:00,
2013-09-13 16:58:00,53.5,47.5,29.85,ENE,69,2.0,5.0,80,0.00,,,0.00,Wunderground v.1.15,2013-09-14 00:58:00,
2013-09-13 17:04:00,53.3,47.3,29.85,ENE,74,1.0,7.0,80,0.00,,,0.00,Wunderground v.1.15,2013-09-14 01:04:00,
2013-09-13 17:09:00,53.2,47.5,29.85,ENE,58,1.0,7.0,81,0.00,,,0.00,Wunderground v.1.15,2013-09-14 01:09:00,
2013-09-13 17:15:00,53.0,47.3,29.86,ENE,68,2.0,7.0,81,0.00,,,0.00,Wunderground v.1.15,2013-09-14 01:15:00,
2013-09-13 17:20:00,52.8,47.8,29.86,East,81,2.0,7.0,83,0.00,,,0.00,Wunderground v.1.15,2013-09-14 01:20:00,
2013-09-13 17:26:00,52.5,47.8,29.86,ENE,69,2.0,7.0,84,0.00,,,0.00,Wunderground v.1.15,2013-09-14 01:26:00,
2013-09-13 17:31:00,52.2,47.8,29.86,East,83,3.0,7.0,85,0.00,,,0.00,Wunderground v.1.15,2013-09-14 01:31:00,
2013-09-13 17:36:00,51.9,48.2,29.86,East,80,3.0,7.0,87,0.00,,,0.00,Wunderground v.1.15,2013-09-14 01:36:00,
2013-09-13 17:42:00,51.5,48.1,29.86,ENE,71,3.0,7.0,88,0.00,,,0.00,Wunderground v.1.15,2013-09-14 01:42:00,
2013-09-13 17:48:00,51.1,48.3,29.86,NE,56,3.0,7.0,90,0.00,,,0.00,Wunderground v.1.15,2013-09-14 01:48:00,
2013-09-13 17:53:00,50.7,48.2,29.86,NNE,32,3.0,7.0,91,0.00,,,0.00,Wunderground v.1.15,2013-09-14 01:53:00,
2013-09-13 17:59:00,50.3,48.1,29.86,ENE,64,2.0,7.0,92,0.00,,,0.00,Wunderground v.1.15,2013-09-14 01:59:00,
2013-09-13 18:05:00,50.0,47.8,29.86,ENE,57,3.0,7.0,92,0.00,,,0.00,Wunderground v.1.15,2013-09-14 02:05:00,
2013-09-13 18:11:00,49.9,48.0,29.86,ENE,61,1.0,7.0,93,0.00,,,0.00,Wunderground v.1.15,2013-09-14 02:11:00,
2013-09-13 18:17:00,49.8,48.1,29.86,NW,318,0.0,7.0,94,0.00,,,0.00,Wunderground v.1.15,2013-09-14 02:17:00,
2013-09-13 18:23:00,49.7,48.0,29.85,NW,314,2.0,7.0,94,0.00,,,0.00,Wunderground v.1.15,2013-09-14 02:23:00,
2013-09-13 18:28:00,49.9,48.2,29.85,NW,314,4.0,8.0,94,0.00,,,0.00,Wunderground v.1.15,2013-09-14 02:28:00,
2013-09-13 18:34:00,50.2,48.5,29.85,NW,311,5.0,7.0,94,0.00,,,0.00,Wunderground v.1.15,2013-09-14 02:34:00,
2013-09-13 18:40:00,50.4,48.7,29.85,ENE,67,2.0,7.0,94,0.00,,,0.00,Wunderground v.1.15,2013-09-14 02:40:00,
2013-09-13 18:45:00,50.5,48.8,29.85,ENE,69,2.0,7.0,94,0.00,,,0.00,Wunderground v.1.15,2013-09-14 02:45:00,
2013-09-13 18:50:00,50.4,48.7,29.85,NW,318,2.0,7.0,94,0.00,,,0.00,Wunderground v.1.15,2013-09-14 02:50:00,
2013-09-13 18:55:00,50.5,48.8,29.85,North,10,1.0,7.0,94,0.00,,,0.00,Wunderground v.1.15,2013-09-14 02:55:00,
2013-09-13 19:01:00,50.6,49.2,29.85,WNW,302,1.0,4.0,95,0.00,,,0.00,Wunderground v.1.15,2013-09-14 03:01:00,
2013-09-13 19:07:00,50.9,49.2,29.85,NW,308,2.0,5.0,94,0.00,,,0.00,Wunderground v.1.15,2013-09-14 03:07:00,
2013-09-13 19:13:00,51.1,49.1,29.85,NW,314,2.0,4.0,93,0.00,,,0.00,Wunderground v.1.15,2013-09-14 03:13:00,
2013-09-13 19:19:00,51.1,49.1,29.85,NW,314,1.0,1.0,93,0.00,,,0.00,Wunderground v.1.15,2013-09-14 03:19:00,
2013-09-13 19:25:00,51.0,49.0,29.85,NW,315,0.0,4.0,93,0.00,,,0.00,Wunderground v.1.15,2013-09-14 03:25:00,
2013-09-13 19:31:00,50.7,48.7,29.85,NW,314,0.0,4.0,93,0.00,,,0.00,Wunderground v.1.15,2013-09-14 03:31:00,
2013-09-13 19:37:00,50.6,48.9,29.85,NW,314,0.0,4.0,94,0.00,,,0.00,Wunderground v.1.15,2013-09-14 03:37:00,
2013-09-13 19:43:00,50.4,48.7,29.85,NW,315,0.0,4.0,94,0.00,,,0.00,Wunderground v.1.15,2013-09-14 03:43:00,
2013-09-13 19:48:00,50.3,48.6,29.85,NW,315,0.0,4.0,94,0.00,,,0.00,Wunderground v.1.15,2013-09-14 03:48:00,
2013-09-13 19:53:00,50.3,48.6,29.85,NW,314,0.0,4.0,94,0.00,,,0.00,Wunderground v.1.15,2013-09-14 03:53:00,
2013-09-13 19:58:00,50.2,48.5,29.85,NW,314,0.0,4.0,94,0.00,,,0.00,Wunderground v.1.15,2013-09-14 03:58:00,
2013-09-13 20:01:00,50.2,48.5,29.85,WNW,300,0.0,0.0,94,0.00,,,0.00,Wunderground v.1.15,2013-09-14 04:01:00,
2013-09-13 20:02:00,50.2,48.5,29.85,West,264,0.0,1.0,94,0.00,,,0.00,Wunderground v.1.15,2013-09-14 04:02:00,
2013-09-13 20:07:00,50.2,48.5,29.85,SW,228,1.0,2.0,94,0.00,,,0.00,Wunderground v.1.15,2013-09-14 04:07:00,
2013-09-13 20:08:00,50.2,48.5,29.85,SW,228,1.0,2.0,94,0.00,,,0.00,Wunderground v.1.15,2013-09-14 04:08:00,
2013-09-13 20:14:00,50.2,48.5,29.85,SW,228,0.0,1.0,94,0.00,,,0.00,Wunderground v.1.15,2013-09-14 04:14:00,
2013-09-13 20:16:00,50.2,48.5,29.85,SW,228,0.0,1.0,94,0.00,,,0.00,Wunderground v.1.15,2013-09-14 04:16:00,
2013-09-13 20:21:00,50.1,48.4,29.85,WSW,256,0.0,0.0,94,0.00,,,0.00,Wunderground v.1.15,2013-09-14 04:21:00,
2013-09-13 20:27:00,50.1,48.4,29.86,West,274,0.0,1.0,94,0.00,,,0.00,Wunderground v.1.15,2013-09-14 04:27:00,
2013-09-13 20:33:00,50.1,48.7,29.86,NNE,27,0.0,1.0,95,0.00,,,0.00,Wunderground v.1.15,2013-09-14 04:33:00,
2013-09-13 20:39:00,50.1,48.7,29.86,NNE,26,0.0,0.0,95,0.00,,,0.00,Wunderground v.1.15,2013-09-14 04:39:00,
2013-09-13 20:45:00,50.1,48.7,29.86,NNE,26,0.0,0.0,95,0.00,,,0.00,Wunderground v.1.15,2013-09-14 04:45:00,
2013-09-13 20:51:00,50.1,48.7,29.86,NNW,327,0.0,0.0,95,0.00,,,0.00,Wunderground v.1.15,2013-09-14 04:51:00,
2013-09-13 20:57:00,50.1,48.7,29.86,NNW,328,0.0,1.0,95,0.00,,,0.00,Wunderground v.1.15,2013-09-14 04:57:00,
2013-09-13 21:03:00,50.1,48.7,29.86,NNW,327,0.0,2.0,95,0.00,,,0.00,Wunderground v.1.15,2013-09-14 05:03:00,
2013-09-13 21:09:00,50.2,48.8,29.86,North,354,0.0,2.0,95,0.00,,,0.00,Wunderground v.1.15,2013-09-14 05:09:00,
2013-09-13 21:15:00,50.2,48.8,29.86,NNE,13,0.0,2.0,95,0.00,,,0.00,Wunderground v.1.15,2013-09-14 05:15:00,
2013-09-13 21:21:00,50.2,48.8,29.86,NNE,29,0.0,2.0,95,0.00,,,0.01,Wunderground v.1.15,2013-09-14 05:21:00,
2013-09-13 21:27:00,50.1,48.7,29.86,NNE,22,0.0,2.0,95,0.00,,,0.01,Wunderground v.1.15,2013-09-14 05:27:00,
2013-09-13 21:33:00,50.1,48.7,29.86,NNE,22,0.0,2.0,95,0.00,,,0.01,Wunderground v.1.15,2013-09-14 05:33:00,
2013-09-13 21:39:00,50.0,48.6,29.86,NNE,22,0.0,2.0,95,0.00,,,0.01,Wunderground v.1.15,2013-09-14 05:39:00,
2013-09-13 21:45:00,50.0,48.6,29.87,NE,35,0.0,2.0,95,0.00,,,0.01,Wunderground v.1.15,2013-09-14 05:45:00,
2013-09-13 21:51:00,50.0,48.6,29.87,NE,37,0.0,2.0,95,0.00,,,0.02,Wunderground v.1.15,2013-09-14 05:51:00,
2013-09-13 21:57:00,49.9,48.5,29.87,NE,36,0.0,2.0,95,0.00,,,0.02,Wunderground v.1.15,2013-09-14 05:57:00,
2013-09-13 22:02:00,49.9,48.5,29.87,NE,37,0.0,2.0,95,0.00,,,0.02,Wunderground v.1.15,2013-09-14 06:02:00,
2013-09-13 22:08:00,49.9,48.5,29.87,NNE,23,0.0,2.0,95,0.00,,,0.02,Wunderground v.1.15,2013-09-14 06:08:00,
2013-09-13 22:14:00,49.8,48.4,29.87,NNE,14,0.0,2.0,95,0.00,,,0.02,Wunderground v.1.15,2013-09-14 06:14:00,
2013-09-13 22:20:00,49.8,48.7,29.87,NNE,18,0.0,2.0,96,0.00,,,0.02,Wunderground v.1.15,2013-09-14 06:20:00,
2013-09-13 22:25:00,49.7,48.6,29.87,NNE,18,0.0,2.0,96,0.00,,,0.02,Wunderground v.1.15,2013-09-14 06:25:00,
2013-09-13 22:31:00,49.7,48.6,29.87,NNE,18,0.0,2.0,96,0.00,,,0.02,Wunderground v.1.15,2013-09-14 06:31:00,
2013-09-13 22:37:00,49.6,48.5,29.87,NNE,18,0.0,2.0,96,0.00,,,0.02,Wunderground v.1.15,2013-09-14 06:37:00,
2013-09-13 22:42:00,49.5,48.4,29.87,NNE,18,0.0,2.0,96,0.00,,,0.02,Wunderground v.1.15,2013-09-14 06:42:00,
2013-09-13 22:47:00,49.4,48.3,29.87,NNE,18,0.0,2.0,96,0.00,,,0.02,Wunderground v.1.15,2013-09-14 06:47:00,
2013-09-13 22:52:00,49.4,48.3,29.87,NNE,18,0.0,2.0,96,0.00,,,0.02,Wunderground v.1.15,2013-09-14 06:52:00,
2013-09-13 22:58:00,49.4,48.3,29.86,North,8,0.0,2.0,96,0.00,,,0.02,Wunderground v.1.15,2013-09-14 06:58:00,
2013-09-13 23:04:00,49.6,48.5,29.86,WNW,300,1.0,6.0,96,0.00,,,0.02,Wunderground v.1.15,2013-09-14 07:04:00,
2013-09-13 23:09:00,49.7,48.6,29.86,WNW,282,4.0,4.0,96,0.00,,,0.02,Wunderground v.1.15,2013-09-14 07:09:00,
2013-09-13 23:15:00,49.9,48.8,29.86,NNW,337,4.0,4.0,96,0.00,,,0.02,Wunderground v.1.15,2013-09-14 07:15:00,
2013-09-13 23:21:00,49.9,48.5,29.86,North,4,1.0,2.0,95,0.00,,,0.02,Wunderground v.1.15,2013-09-14 07:21:00,
2013-09-13 23:27:00,49.7,48.3,29.87,NNW,330,1.0,2.0,95,0.00,,,0.02,Wunderground v.1.15,2013-09-14 07:27:00,
2013-09-13 23:32:00,49.7,48.3,29.87,NNW,330,0.0,0.0,95,0.00,,,0.02,Wunderground v.1.15,2013-09-14 07:32:00,
2013-09-13 23:38:00,49.7,48.6,29.86,NW,307,0.0,3.0,96,0.00,,,0.02,Wunderground v.1.15,2013-09-14 07:38:00,
2013-09-13 23:44:00,49.7,48.6,29.86,NNW,336,0.0,1.0,96,0.00,,,0.02,Wunderground v.1.15,2013-09-14 07:44:00,
2013-09-13 23:50:00,49.7,48.3,29.86,West,269,2.0,8.0,95,0.00,,,0.02,Wunderground v.1.15,2013-09-14 07:50:00,
2013-09-13 23:55:00,49.6,48.2,29.86,NNW,330,3.0,8.0,95,0.00,,,0.02,Wunderground v.1.15,2013-09-14 07:55:00,